FW8343 Weather Reports


time (UTC)temp
F
wind
direction
speed
knots
gust
knots
rain 1hr
in
rain 24hr
in
rain mn
in
humidity
%
barometer
mb
20260509232017 51 268 1.7 7.8 0.00 0.00 0.00 42 1010.2
20260509231533 51 0 0.9 4.3 0.00 0.00 0.00 45 1010.2
20260509231010 50 0 0.0 4.3 0.00 0.00 0.00 46 1010.2
20260509230515 50 332 0.9 4.3 0.00 0.00 0.00 43 1010.1
20260509230031 50 0 0.9 8.7 0.00 0.00 0.00 43 1010.0
20260509225512 50 267 2.6 8.7 0.00 0.00 0.00 44 1010.0
20260509225015 50 0 0.0 6.1 0.00 0.00 0.00 43 1009.9
20260509224544 50 0 0.9 5.2 0.00 0.00 0.00 45 1010.0
20260509224009 51 329 0.9 6.1 0.00 0.00 0.00 42 1009.9
20260509223515 51 334 1.7 8.7 0.00 0.00 0.00 41 1009.9
20260509223030 51 348 0.9 8.7 0.00 0.00 0.00 44 1009.8
20260509222509 51 327 3.5 9.6 0.00 0.00 0.00 40 1009.8
20260509222013 51 296 2.6 9.6 0.00 0.00 0.00 40 1009.7
20260509221531 51 315 2.6 9.6 0.00 0.00 0.00 41 1009.8
20260509221011 51 325 0.9 7.0 0.00 0.00 0.00 44 1009.7
20260509220515 51 329 2.6 9.6 0.00 0.00 0.00 40 1009.7
20260509220029 50 0 0.9 12.2 0.00 0.00 0.00 42 1009.7
20260509215512 50 5 2.6 12.2 0.00 0.00 0.00 41 1009.7
20260509215015 50 306 2.6 12.2 0.00 0.00 0.00 41 1009.7
20260509214535 51 313 3.5 9.6 0.00 0.00 0.00 40 1009.6
20260509214012 51 257 1.7 7.0 0.00 0.00 0.00 39 1009.6
20260509213512 51 323 0.9 7.8 0.00 0.00 0.00 41 1009.6
20260509213030 51 295 1.7 9.6 0.00 0.00 0.00 43 1009.5
20260509212511 51 32 1.7 10.4 0.00 0.00 0.00 41 1009.5
20260509212018 51 43 2.6 10.4 0.00 0.00 0.00 40 1009.4
20260509211529 51 5 1.7 7.0 0.00 0.00 0.00 44 1009.5
20260509211010 51 319 2.6 7.8 0.00 0.00 0.00 41 1009.4
20260509210514 51 309 3.5 7.8 0.00 0.00 0.00 42 1009.5
20260509210031 51 67 2.6 10.4 0.00 0.00 0.00 41 1009.3
20260509205510 51 290 4.3 12.2 0.00 0.00 0.00 41 1009.3
20260509205011 51 294 4.3 14.8 0.00 0.00 0.00 40 1009.3
20260509204529 51 320 4.3 14.8 0.00 0.00 0.00 42 1009.2
20260509204012 51 0 1.7 9.6 0.00 0.00 0.00 42 1009.2
20260509203515 51 0 3.5 9.6 0.00 0.00 0.00 41 1009.2
20260509203035 52 17 1.7 8.7 0.00 0.00 0.00 41 1009.0
20260509202510 52 314 1.7 10.4 0.00 0.00 0.00 43 1009.1
20260509202016 52 313 2.6 10.4 0.00 0.00 0.00 42 1009.1
20260509201529 52 15 4.3 9.6 0.00 0.00 0.00 41 1009.0
20260509201011 51 240 1.7 12.2 0.00 0.00 0.00 43 1008.8
20260509200512 50 298 3.5 12.2 0.00 0.00 0.00 44 1009.0
20260509200030 51 293 4.3 12.2 0.00 0.00 0.00 42 1008.9
20260509195516 51 317 0.0 11.3 0.00 0.00 0.00 45 1008.7
20260509195013 51 313 4.3 11.3 0.00 0.00 0.00 40 1008.8
20260509194533 51 293 3.5 10.4 0.00 0.00 0.00 41 1008.8
20260509194010 51 316 2.6 9.6 0.00 0.00 0.00 43 1008.8
20260509193514 52 330 3.5 13.9 0.00 0.00 0.00 42 1008.6
20260509193032 52 32 4.3 13.9 0.00 0.00 0.00 42 1008.5
20260509192511 51 318 5.2 13.9 0.00 0.00 0.00 41 1008.5
20260509192013 52 258 1.7 7.8 0.00 0.00 0.00 44 1008.4
20260509191530 53 301 2.6 11.3 0.00 0.00 0.00 44 1008.4
20260509191013 52 342 5.2 11.3 0.00 0.00 0.00 42 1008.3
20260509190510 52 254 3.5 11.3 0.00 0.00 0.00 43 1008.3
20260509190031 51 331 3.5 11.3 0.00 0.00 0.00 43 1008.3
20260509185509 52 293 3.5 11.3 0.00 0.00 0.00 43 1008.0
20260509185014 52 323 3.5 11.3 0.00 0.00 0.00 42 1007.9
20260509184542 52 199 1.7 8.7 0.00 0.00 0.00 44 1007.9
20260509184010 51 323 2.6 8.7 0.00 0.00 0.00 47 1007.9
20260509183514 52 302 1.7 9.6 0.00 0.00 0.00 44 1007.9
20260509183029 52 284 2.6 9.6 0.00 0.00 0.00 44 1007.7
20260509182510 52 319 3.5 10.4 0.00 0.00 0.00 45 1007.6
20260509182015 51 340 2.6 10.4 0.00 0.00 0.00 46 1007.7
20260509181529 51 288 2.6 9.6 0.00 0.00 0.00 44 1007.5
20260509181011 52 283 4.3 9.6 0.00 0.00 0.00 43 1007.6
20260509180515 53 282 3.5 8.7 0.00 0.00 0.00 43 1007.4
20260509180053 53 284 2.6 8.7 0.00 0.00 0.00 44 1007.3
20260509175511 51 242 1.7 9.6 0.00 0.00 0.00 49 1007.3
20260509175014 51 273 3.5 9.6 0.00 0.00 0.00 44 1007.2
20260509174532 52 339 3.5 8.7 0.00 0.00 0.00 44 1007.2
20260509174010 52 312 0.9 8.7 0.00 0.00 0.00 45 1007.1
20260509173513 52 313 0.9 9.6 0.00 0.00 0.00 46 1007.1
20260509173040 53 271 2.6 9.6 0.00 0.00 0.00 44 1006.9
20260509172515 53 0 1.7 8.7 0.00 0.00 0.00 43 1007.0
20260509172011 52 254 2.6 9.6 0.00 0.00 0.00 45 1006.9
20260509171529 52 307 1.7 9.6 0.00 0.00 0.00 46 1006.7
20260509171011 52 309 2.6 9.6 0.00 0.00 0.00 44 1006.7
20260509170512 53 303 2.6 11.3 0.00 0.00 0.00 42 1006.7
20260509170045 54 265 3.5 11.3 0.00 0.00 0.00 42 1006.6
20260509165513 54 331 3.5 11.3 0.00 0.00 0.00 45 1006.5
20260509165013 53 312 1.7 8.7 0.00 0.00 0.00 40 1006.6
20260509164531 53 286 1.7 17.4 0.00 0.00 0.00 45 1006.4
20260509164010 52 307 1.7 17.4 0.00 0.00 0.00 45 1006.4
20260509163512 52 296 2.6 11.3 0.00 0.00 0.00 42 1006.2
20260509163031 53 5 2.6 8.7 0.00 0.00 0.00 44 1006.2
20260509162512 52 315 3.5 8.7 0.00 0.00 0.00 42 1006.1
20260509162016 53 17 2.6 10.4 0.00 0.00 0.00 42 1006.1
20260509161529 53 355 3.5 13.9 0.00 0.00 0.00 39 1006.0
20260509161011 53 284 4.3 13.9 0.00 0.00 0.00 39 1005.8
20260509160511 53 333 3.5 13.9 0.00 0.00 0.00 40 1005.7
20260509160028 52 321 3.5 11.3 0.00 0.00 0.00 41 1005.6
20260509155509 52 319 2.6 11.3 0.00 0.00 0.00 40 1005.7
20260509155013 52 36 2.6 11.3 0.00 0.00 0.00 41 1005.6
20260509154532 52 355 4.3 9.6 0.00 0.00 0.00 39 1005.4
20260509154009 52 348 3.5 9.6 0.00 0.00 0.00 42 1005.4
20260509153511 52 304 4.3 10.4 0.00 0.00 0.00 39 1005.3
20260509153033 53 273 4.3 10.4 0.00 0.00 0.00 41 1005.1
20260509152508 52 300 2.6 11.3 0.00 0.00 0.00 43 1005.1
20260509152013 52 329 4.3 11.3 0.00 0.00 0.00 41 1005.0
20260509151530 52 274 3.5 11.3 0.00 0.00 0.00 41 1005.0
20260509151011 51 327 5.2 10.4 0.00 0.00 0.00 39 1004.8
20260509150517 51 326 5.2 14.8 0.00 0.00 0.00 40 1004.8
20260509150028 51 309 3.5 14.8 0.00 0.00 0.00 41 1004.6
20260509145510 51 239 2.6 14.8 0.00 0.00 0.00 40 1004.6
20260509145012 51 333 2.6 13.9 0.00 0.00 0.00 42 1004.5
20260509144532 51 275 2.6 11.3 0.00 0.00 0.00 39 1004.5
20260509144008 50 318 2.6 7.8 0.00 0.00 0.00 42 1004.5
20260509143513 49 325 1.7 8.7 0.00 0.00 0.00 44 1004.4
20260509143035 49 317 2.6 9.6 0.00 0.00 0.00 42 1004.4
20260509142512 49 324 3.5 9.6 0.00 0.00 0.00 44 1004.5
20260509142015 49 317 3.5 9.6 0.00 0.00 0.00 41 1004.3
20260509141540 49 336 3.5 12.2 0.00 0.00 0.00 43 1004.2
20260509141011 49 306 3.5 12.2 0.00 0.00 0.00 46 1003.9
20260509140515 48 34 1.7 7.8 0.00 0.00 0.00 47 1004.0
20260509140031 48 314 1.7 7.8 0.00 0.00 0.00 44 1003.9
20260509135513 47 281 1.7 7.8 0.00 0.00 0.00 45 1004.0
20260509135012 46 294 1.7 7.8 0.00 0.00 0.00 45 1003.9
20260509134533 46 41 2.6 7.8 0.00 0.00 0.00 45 1004.0
20260509134009 46 351 2.6 10.4 0.00 0.00 0.00 44 1003.9
20260509133512 46 322 0.9 10.4 0.00 0.00 0.00 46 1004.0
20260509133028 46 313 2.6 10.4 0.00 0.00 0.00 46 1003.8
20260509132516 46 304 3.5 10.4 0.00 0.00 0.00 45 1003.7
20260509132013 46 296 4.3 10.4 0.00 0.00 0.00 46 1003.7
20260509131551 46 344 0.9 4.3 0.00 0.00 0.00 48 1003.7
20260509131011 46 340 0.9 4.3 0.00 0.00 0.00 49 1003.6
20260509130514 46 311 0.0 4.3 0.00 0.00 0.00 48 1003.4
20260509130030 46 261 0.0 6.1 0.00 0.00 0.00 49 1003.4
20260509125515 46 321 1.7 6.1 0.00 0.00 0.00 47 1003.2
20260509125011 46 0 0.9 8.7 0.00 0.00 0.00 49 1003.3
20260509124531 46 311 1.7 8.7 0.00 0.00 0.00 49 1003.3
20260509124011 46 292 2.6 8.7 0.00 0.00 0.00 47 1003.2
20260509123515 46 0 0.9 6.1 0.00 0.00 0.00 48 1003.2
20260509123033 46 293 0.9 3.5 0.00 0.00 0.00 50 1003.1
20260509122511 46 0 0.0 3.5 0.00 0.00 0.00 51 1003.0
20260509122012 46 355 0.0 3.5 0.00 0.00 0.00 51 1003.1
20260509121533 46 355 0.0 3.5 0.00 0.00 0.00 51 1003.0
20260509121010 46 0 0.9 5.2 0.00 0.00 0.00 49 1003.0
20260509120512 46 331 0.9 7.8 0.00 0.00 0.00 51 1003.0
20260509120032 46 302 2.6 7.8 0.00 0.00 0.00 49 1002.8
20260509115510 46 325 0.9 2.6 0.00 0.00 0.00 50 1002.9
20260509115013 46 0 0.0 2.6 0.00 0.00 0.00 50 1002.9
20260509114535 46 317 0.0 4.3 0.00 0.00 0.00 52 1002.8
20260509114017 46 317 0.0 4.3 0.00 0.00 0.00 50 1002.7
20260509113514 46 0 0.0 4.3 0.00 0.00 0.00 50 1002.6
20260509113035 46 311 0.9 4.3 0.00 0.00 0.00 51 1002.6
20260509112511 46 311 0.9 2.6 0.00 0.00 0.00 52 1002.6
20260509112013 46 344 1.7 2.6 0.00 0.00 0.00 52 1002.6
20260509111530 46 350 0.0 2.6 0.00 0.00 0.00 53 1002.5
20260509111009 46 0 0.0 2.6 0.00 0.00 0.00 53 1002.3
20260509110516 47 296 0.9 2.6 0.00 0.00 0.00 52 1002.3
20260509110032 47 305 0.0 3.5 0.00 0.00 0.00 53 1002.2
20260509105513 47 305 0.9 3.5 0.00 0.00 0.00 52 1002.1
20260509105012 47 272 1.7 7.0 0.00 0.00 0.00 52 1002.1
20260509104530 47 318 1.7 7.0 0.00 0.00 0.00 54 1002.0
20260509104010 48 285 0.0 5.2 0.00 0.00 0.00 52 1002.1
20260509103512 48 276 1.7 5.2 0.00 0.00 0.00 52 1002.0
20260509103031 48 0 0.9 6.1 0.00 0.00 0.00 53 1002.0
20260509102510 48 287 0.9 6.1 0.00 0.00 0.00 52 1001.9
20260509102018 48 0 0.9 6.1 0.00 0.00 0.00 53 1002.0
20260509101536 48 309 1.7 6.1 0.00 0.00 0.00 53 1001.8
20260509101051 48 284 2.6 6.1 0.00 0.00 0.00 52 1001.8
20260509100512 48 272 0.9 7.0 0.00 0.00 0.00 53 1001.7
20260509100032 48 243 2.6 7.0 0.00 0.00 0.00 53 1001.7
20260509095512 48 266 2.6 7.0 0.00 0.00 0.00 53 1001.6
20260509095011 48 260 2.6 7.0 0.00 0.00 0.00 53 1001.6
20260509094533 48 0 1.7 5.2 0.00 0.00 0.00 54 1001.4
20260509094011 48 283 1.7 4.3 0.00 0.00 0.00 54 1001.6
20260509093511 48 274 0.9 3.5 0.00 0.00 0.00 54 1001.4
20260509093028 48 274 0.9 3.5 0.00 0.00 0.00 54 1001.4
20260509092512 48 263 0.9 3.5 0.00 0.00 0.00 54 1001.6
20260509092012 48 0 0.0 4.3 0.00 0.00 0.00 54 1001.4
20260509091536 48 289 1.7 4.3 0.00 0.00 0.00 53 1001.4
20260509091009 48 289 1.7 5.2 0.00 0.00 0.00 53 1001.4
20260509090510 48 0 1.7 6.1 0.00 0.00 0.00 54 1001.3
20260509090045 48 250 1.7 6.1 0.00 0.00 0.00 53 1001.4
20260509085511 47 259 0.9 5.2 0.00 0.00 0.00 54 1001.5
20260509085012 47 283 0.9 3.5 0.00 0.00 0.00 55 1001.5
20260509084533 47 325 0.9 2.6 0.00 0.00 0.00 57 1001.6
20260509084009 47 325 0.9 3.5 0.00 0.00 0.00 56 1001.7
20260509083509 47 325 1.7 3.5 0.00 0.00 0.00 55 1001.7
20260509083032 47 325 0.9 2.6 0.00 0.00 0.00 56 1001.5
20260509082510 47 0 0.0 2.6 0.00 0.00 0.00 56 1001.5
20260509082015 47 325 0.9 2.6 0.00 0.00 0.00 54 1001.5
20260509081546 47 325 0.9 2.6 0.00 0.00 0.00 54 1001.5
20260509081009 47 325 0.0 2.6 0.00 0.00 0.00 54 1001.3
20260509080510 48 0 0.0 2.6 0.00 0.00 0.00 54 1001.4
20260509080034 48 325 0.0 2.6 0.00 0.00 0.00 53 1001.4
20260509075510 48 0 0.0 0.0 0.00 0.00 0.00 56 1001.2
20260509075012 48 0 0.0 0.0 0.00 0.00 0.00 53 1001.1
20260509074530 48 0 0.0 0.0 0.00 0.00 0.00 53 1001.1
20260509074013 48 0 0.0 1.7 0.00 0.00 0.00 53 1001.3
20260509073513 48 0 0.0 1.7 0.00 0.00 0.00 52 1001.3
20260509073042 48 325 0.0 1.7 0.00 0.00 0.00 52 1001.4
20260509072510 48 325 0.0 2.6 0.00 0.00 0.00 53 1001.4
20260509072013 48 0 0.0 2.6 0.00 0.00 0.00 53 1001.4
20260509071542 48 325 0.0 1.7 0.00 0.00 0.00 53 1001.4
20260509071011 48 0 0.0 1.7 0.00 0.00 0.00 54 1001.5
20260509070517 48 0 0.0 1.7 0.00 0.00 0.00 53 1001.4
20260509070041 48 325 0.0 1.7 0.00 0.00 0.00 53 1001.4
20260509065513 48 0 0.9 2.6 0.00 0.00 0.00 52 1001.7
20260509065013 48 325 0.9 2.6 0.00 0.00 0.00 52 1001.7
20260509064531 48 325 0.9 2.6 0.00 0.00 0.00 52 1001.7
20260509064014 48 0 0.0 0.9 0.00 0.00 0.00 51 1001.6
20260509063513 48 0 0.0 0.9 0.00 0.00 0.00 51 1001.6
20260509063053 48 0 0.0 1.7 0.00 0.00 0.00 52 1001.8
20260509062512 48 0 0.0 1.7 0.00 0.00 0.00 51 1001.9
20260509062016 48 0 0.0 1.7 0.00 0.00 0.00 52 1001.9
20260509061552 48 325 0.0 1.7 0.00 0.00 0.00 51 1001.9
20260509061009 49 325 0.9 1.7 0.00 0.00 0.00 50 1001.9
20260509060510 49 325 0.9 1.7 0.00 0.00 0.00 50 1001.9
20260509060047 49 0 0.0 0.0 0.00 0.00 0.00 50 1001.4
20260509055512 49 0 0.0 1.7 0.00 0.00 0.00 51 1001.7
20260509055016 49 0 0.0 1.7 0.00 0.00 0.00 49 1001.7
20260509054529 50 0 0.0 1.7 0.00 0.00 0.00 48 1001.5
20260509054011 50 0 0.0 1.7 0.00 0.00 0.00 47 1001.6
20260509053512 50 0 0.0 1.7 0.00 0.00 0.00 48 1001.6
20260509053029 50 325 0.0 1.7 0.00 0.00 0.00 47 1001.6
20260509052511 51 0 0.0 3.5 0.00 0.00 0.00 47 1001.8
20260509052010 51 0 0.0 3.5 0.00 0.00 0.00 47 1001.8
20260509051530 51 0 0.0 3.5 0.00 0.00 0.00 47 1001.8
20260509051011 52 0 0.0 6.1 0.00 0.00 0.00 47 1001.7
20260509050509 52 0 0.0 6.1 0.00 0.00 0.00 46 1001.6
20260509050032 52 327 0.9 5.2 0.00 0.00 0.00 47 1001.7
20260509045511 52 296 1.7 4.3 0.00 0.00 0.00 47 1001.7
20260509045016 53 0 0.0 7.0 0.00 0.00 0.00 48 1001.6
20260509044530 53 0 0.0 7.8 0.00 0.00 0.00 47 1001.5
20260509044012 53 264 2.6 7.8 0.00 0.00 0.00 47 1001.6
20260509043514 52 279 1.7 6.1 0.00 0.00 0.00 48 1001.7
20260509043028 52 293 1.7 6.1 0.00 0.00 0.00 48 1001.6
20260509042514 52 323 1.7 6.1 0.00 0.00 0.00 48 1001.5
20260509042017 52 290 1.7 6.1 0.00 0.00 0.00 48 1001.4
20260509041531 51 332 0.9 6.1 0.00 0.00 0.00 50 1001.4
20260509041012 50 263 1.7 3.5 0.00 0.00 0.00 51 1001.3
20260509040510 49 286 1.7 3.5 0.00 0.00 0.00 54 1001.4
20260509040030 49 288 0.0 2.6 0.00 0.00 0.00 57 1001.2
20260509035514 49 288 0.0 0.9 0.00 0.00 0.00 61 1001.2
20260509035013 49 0 0.0 0.0 0.00 0.00 0.00 56 1001.1
20260509034530 49 0 0.0 0.0 0.00 0.00 0.00 53 1001.0
20260509034011 49 0 0.0 0.0 0.00 0.00 0.00 55 1001.0
20260509033516 49 0 0.0 2.6 0.00 0.00 0.00 58 1001.0
20260509033029 50 0 0.0 2.6 0.00 0.00 0.00 57 1001.1
20260509032512 50 0 0.9 2.6 0.00 0.00 0.00 61 1001.1
20260509032014 51 239 0.9 1.7 0.00 0.00 0.00 54 1001.0
20260509031535 51 239 0.0 1.7 0.00 0.00 0.00 53 1001.0
20260509031012 52 239 0.0 1.7 0.00 0.00 0.00 54 1001.0
20260509030519 52 0 0.0 0.0 0.00 0.00 0.00 50 1001.0
20260509030038 52 0 0.0 0.0 0.00 0.00 0.00 48 1000.9
20260509025511 52 0 0.0 0.0 0.00 0.00 0.00 50 1000.9
20260509025014 53 0 0.0 0.0 0.00 0.00 0.00 50 1000.9
20260509024530 53 0 0.0 0.0 0.00 0.00 0.00 48 1000.9
20260509024014 53 0 0.0 0.0 0.00 0.00 0.00 51 1001.0
20260509023511 53 0 0.0 0.0 0.00 0.00 0.00 46 1001.0
20260509023030 54 0 0.0 0.0 0.00 0.00 0.00 48 1001.0
20260509022512 54 0 0.0 0.0 0.00 0.00 0.00 47 1001.0
20260509022014 54 0 0.0 0.0 0.00 0.00 0.00 46 1001.0
20260509021532 54 0 0.0 0.0 0.00 0.00 0.00 45 1001.0
20260509021011 55 0 0.0 0.0 0.00 0.00 0.00 45 1001.0
20260509020511 55 0 0.0 0.0 0.00 0.00 0.00 46 1001.0
20260509020046 55 0 0.0 0.0 0.00 0.00 0.00 44 1001.0
20260509015510 56 0 0.0 0.0 0.00 0.00 0.00 47 1001.0
20260509015013 56 0 0.0 0.0 0.00 0.00 0.00 49 1001.0
20260509014543 56 0 0.0 0.0 0.00 0.00 0.00 50 1001.0
20260509014012 57 0 0.0 0.0 0.00 0.00 0.00 49 1001.0
20260509013513 57 0 0.0 0.0 0.00 0.00 0.00 39 1001.0
20260509013038 57 0 0.0 0.0 0.00 0.00 0.00 39 1001.0
20260509012509 58 0 0.0 0.0 0.00 0.00 0.00 39 1001.1
20260509012014 58 0 0.0 0.0 0.00 0.00 0.00 37 1001.1
20260509011531 58 0 0.0 0.0 0.00 0.00 0.00 37 1001.1
20260509011012 59 0 0.0 0.0 0.00 0.00 0.00 35 1001.2
20260509010516 59 0 0.0 0.0 0.00 0.00 0.00 34 1001.2
20260509010032 59 0 0.0 0.9 0.00 0.00 0.00 34 1001.2
20260509005511 59 0 0.0 0.9 0.00 0.00 0.00 34 1001.2
20260509005021 59 0 0.0 1.7 0.00 0.00 0.00 34 1001.3
20260509004531 59 0 0.0 3.5 0.00 0.00 0.00 34 1001.3
20260509004013 60 239 0.0 6.1 0.00 0.00 0.00 35 1001.3
20260509003515 60 258 0.9 6.1 0.00 0.00 0.00 33 1001.2
20260509003038 60 288 1.7 6.1 0.00 0.00 0.00 34 1001.2
20260509002513 60 288 1.7 3.5 0.00 0.00 0.00 34 1001.3
20260509002013 60 272 0.9 3.5 0.00 0.00 0.00 34 1001.3
20260509001531 60 267 1.7 3.5 0.00 0.00 0.00 34 1001.4
20260509001013 60 265 0.9 4.3 0.00 0.00 0.00 35 1001.4
20260509000510 60 0 0.9 6.1 0.00 0.00 0.00 34 1001.4
20260509000031 60 280 1.7 6.1 0.00 0.00 0.00 33 1001.4
20260508235517 60 270 0.9 9.6 0.00 0.00 0.00 34 1001.5
20260508235015 60 288 0.9 18.2 0.00 0.00 0.00 36 1001.6
20260508234532 60 266 5.2 18.2 0.00 0.00 0.00 32 1001.7
20260508234011 61 242 7.0 18.2 0.00 0.00 0.00 33 1001.8
20260508233511 61 240 2.6 8.7 0.00 0.00 0.00 33 1001.7
20260508233032 61 275 1.7 17.4 0.00 0.00 0.00 32 1001.8
20260508232513 60 284 2.6 17.4 0.00 0.00 0.00 32 1001.8